Regional Weather Roundup
Issued by NWS Cleveland, OH

Home | Current Version | Previous Version | Graphics & Text | Print | Product List | Glossary On
Versions: 1 2 3 4 5 6 7 8 9 10 11 12 13 14 15 16 17 18 19 20 21 22 23 24 25 26 27 28 29 30 31 32 33 34 35 36 37 38 39 40 41 42 43 44 45 46 47 48 49 50
000
ASUS41 KCLE 280202
RWRCLE
OHIO REGIONAL WEATHER ROUNDUP
NATIONAL WEATHER SERVICE CLEVELAND, OH
1000 PM EDT THU APR 27 2017

NOTE: "FAIR" INDICATES FEW OR NO CLOUDS BELOW 12,000 FEET WITH NO
SIGNIFICANT WEATHER AND/OR OBSTRUCTIONS TO VISIBILITY.

OHZ001>008-015>018-024>027-034-035-043-044-280300-
   NORTHWEST OHIO

CITY           SKY/WX    TMP DP  RH WIND       PRES   REMARKS
DEFIANCE       CLOUDY    50  42  74 W7G16     29.82R
FINDLAY        CLEAR     51  41  68 SW7       29.81R
TOLEDO EXPRESS CLOUDY    52  42  69 W15       29.79R
TOLEDO EXEC    CLOUDY    54  44  69 W14       29.80R
LIMA           PTCLDY    50  43  77 W7        29.83R
$$

OHZ009>014-019>023-028>033-038-089-280300-
   NORTHEAST OHIO

CITY           SKY/WX    TMP DP  RH WIND       PRES   REMARKS
CLE-HOPKINS    CLEAR     58  43  57 W14       29.81R
CLE-LAKEFRONT  CLEAR     55  47  74 W16G23    29.78R
CUY CO. ARPT   PTCLDY    57  46  67 W16       29.80R
LORAIN-ELYRIA  CLEAR     54  40  59 W12       29.81R
ASHTABULA      CLEAR     55  46  71 W10       29.80R
AKRON-CANTON   CLEAR     61  46  57 W12       29.79R
WOOSTER        CLEAR     56  47  71 W12       29.80R
MANSFIELD      CLEAR     54  44  69 W9        29.81R
YOUNGSTOWN     PTCLDY    62  54  74 W8        29.77R
$$

OHZ042-051>053-060>062-070>072-077>081-280300-
  SOUTHWEST OHIO

CITY           SKY/WX    TMP DP  RH WIND       PRES   REMARKS
CINC-COVINGTON PTCLDY    55  47  74 W5        29.86R
CINC-LUNKEN    PTCLDY    53  49  86 SW5       29.87R
HAMILTON       CLEAR     50  48  93 CALM      29.87R
DAYTON         PTCLDY    50  44  80 SW9       29.86R
WRIGHT-PAT AFB PTCLDY    52  44  74 SW7       29.85R
DAYTON GENERAL PTCLDY    55  45  68 SW5       29.85R
WILMINGTON     CLEAR     53  46  77 W7        29.86R
$$

OHZ036-037-039>041-045>050-054>059-063>069-073>076-082>088-280300-
  CENTRAL AND SOUTHEAST OHIO

CITY           SKY/WX    TMP DP  RH WIND       PRES   REMARKS
COLUMBUS       PTCLDY    60  46  59 SW12      29.83R
OSU AIRPORT    PTCLDY    55  47  74 W8        29.83R
BOLTON FIELD   PTCLDY    55  46  73 SW7       29.84R
RICKENBACK AFB PTCLDY    56  46  70 W8        29.83R
NEWARK         CLEAR     59  46  62 SW9       29.82R
MARION         CLEAR     53  43  68 W5        29.83R
LANCASTER      CLEAR     60  46  59 W7        29.83R
ZANESVILLE     CLEAR     62  46  55 W12       29.81R
NEW PHILLY     NOT AVBL
$$



USA.gov is the U.S. government's official web portal to all federal, state and local government web resources and services.